This is the latest recevied weather packets stored in our database for station/object G0TRT-13. If no packets are shown the sender has not sent any weather packets the latest 10 day(s).
| Time | Temp. | Humidity | Pressure | Rain* | Wind** | Luminosity | Snow |
|---|---|---|---|---|---|---|---|
| 1777981950 | 16.11° C | 62% | 1012.9 hPa | 0 mm | - | - | - |
| 1777981651 | 16.11° C | 61% | 1012.8 hPa | 0 mm | - | - | - |
| 1777981352 | 16.11° C | 62% | 1012.9 hPa | 0 mm | - | - | - |
| 1777981053 | 16.11° C | 60% | 1012.8 hPa | 0 mm | - | - | - |
| 1777980751 | 17.22° C | 59% | 1012.8 hPa | 0 mm | - | - | - |
| 1777980451 | 16.67° C | 61% | 1012.9 hPa | 0 mm | - | - | - |
| 1777980151 | 16.11° C | 61% | 1013 hPa | 0 mm | - | - | - |
| 1777979850 | 16.11° C | 62% | 1013 hPa | 0 mm | - | - | - |
| 1777979550 | 15.56° C | 62% | 1013.1 hPa | 0 mm | - | - | - |
| 1777979251 | 15.56° C | 62% | 1013 hPa | 0 mm | - | - | - |
| 1777978951 | 15.56° C | 63% | 1013.1 hPa | 0 mm | - | - | - |
| 1777978651 | 15.56° C | 61% | 1013.1 hPa | 0 mm | - | - | - |
| 1777978350 | 16.11° C | 61% | 1013 hPa | 0 mm | - | - | - |
| 1777978050 | 15.56° C | 64% | 1013.1 hPa | 0 mm | - | - | - |
| 1777977750 | 15.56° C | 64% | 1013.1 hPa | 0 mm | - | - | - |
| 1777977451 | 15.56° C | 63% | 1013.1 hPa | 0 mm | - | - | - |
| 1777977151 | 15° C | 64% | 1013.3 hPa | 0 mm | - | - | - |
| 1777976850 | 14.44° C | 66% | 1013.2 hPa | 0 mm | - | - | - |
| 1777976551 | 14.44° C | 67% | 1013.4 hPa | 0 mm | - | - | - |
| 1777976256 | 14.44° C | 65% | 1013.4 hPa | 0 mm | - | - | - |
| 1777975950 | 14.44° C | 67% | 1013.5 hPa | 0 mm | - | - | - |
| 1777975649 | 13.89° C | 68% | 1013.5 hPa | 0 mm | - | - | - |
| 1777975349 | 13.89° C | 68% | 1013.5 hPa | 0 mm | - | - | - |
| 1777975049 | 13.89° C | 69% | 1013.6 hPa | 0 mm | - | - | - |
| 1777974751 | 13.33° C | 69% | 1013.6 hPa | 0 mm | - | - | - |
* Rain latest hour (hover to see other rain measurements)
** Current wind speed in m/s (hover to see current wind gust speed)